User: anonymous   Login
Location: Unspecified
(0.0000°N, 0.0000°E)
Time: 20:47:11
(UTC+00:00)
Language:

RS-15 - Orbit

View from above orbital plane
View from above orbital plane
View from above satellite
View from above satellite

Ground track
Ground track

The orbit data is extracted from the following two-line orbital elements,

1 23439U 94085A   22268.52804511 -.00000039  00000-0  10000-3 0  9990
2 23439  64.8213 343.7558 0167924 255.4372 102.7874 11.27572362142775
Epoch (UTC): 25 September 2022 12:40:23
Eccentricity: 0.0167924
inclination: 64.8213°
perigee height: 1881 km
apogee height: 2163 km
right ascension of ascending node: 343.7558°
argument of perigee: 255.4372°
revolutions per day: 11.27572362
mean anomaly at epoch: 102.7874°
orbit number at epoch: 14277

The dashed part of the orbit path shows where the satellite is in the earth's shadow,  

DLR